GFSNIL_sfc_temp_000.txt.gz
Temp
60 58 57 58 58 57 57 57 58 59 60 61 62 61 60 61 61 60 60 60 60 60
61 60 59 58 58 57 58 59 59 60 60 61 61 61 61 61 61 61 61 61 61 61
66 61 60 59 58 58 58 59 60 60 60 60 61 60 61 60 60 62 62 63 63 62
63 62 61 60 59 59 59 59 60 60 61 61 60 60 60 59 61 63 63 64 63 61
64 62 61 60 60 60 60 60 60 61 61 61 61 61 61 61 63 63 62 62 63 62
63 62 61 60 60 60 60 60 62 61 61 62 62 61 61 61 60 62 63 63 63 63
63 63 62 61 60 60 61 61 61 62 63 63 62 62 62 61 59 59 61 62 63 64
63 63 64 62 62 61 61 62 63 63 63 63 62 63 62 62 62 61 59 60 62 61
64 68 65 64 62 63 61 61 62 62 62 61 62 52 54 61 62 61 61 60 61 61
65 68 63 64 62 61 60 58 59 59 60 58 58 51 52 55 62 61 61 61 61 63
66 68 64 62 61 59 58 58 57 57 58 57 58 49 50 54 63 61 61 61 61 62
66 64 64 61 58 59 57 56 57 58 58 59 57 48 49 58 61 61 59 61 61 61
66 64 63 61 60 59 58 58 59 58 58 56 57 48 50 57 62 58 57 57 58 53
65 64 63 61 60 60 59 59 57 58 56 58 57 53 48 52 60 60 57 57 56 54

GFSNIL_sfc_temp_003.txt.gz
Temp
59 56 56 56 56 55 55 56 57 58 59 60 60 60 59 59 59 59 59 59 59 59
58 57 57 57 56 55 56 57 58 59 59 60 60 60 60 60 59 60 59 59 59 61
62 59 57 57 57 56 57 57 58 58 59 59 59 60 60 59 62 63 61 60 61 62
60 60 58 58 57 57 57 57 58 59 59 59 59 59 59 60 63 62 62 62 61 61
61 60 58 57 57 57 57 58 59 60 60 59 59 59 60 60 61 62 61 62 62 61
60 59 59 58 58 58 58 58 59 60 60 59 59 60 59 60 59 61 61 62 62 62
60 60 59 58 58 58 59 59 59 60 61 60 60 60 59 59 61 62 61 62 62 61
61 61 60 59 59 59 59 60 60 61 61 60 60 61 59 59 59 60 61 61 62 62
61 62 61 59 58 59 59 60 60 60 60 60 61 50 54 59 61 61 61 61 61 61
63 63 62 61 60 59 57 57 58 58 59 58 57 49 50 54 61 61 60 61 61 62
64 63 61 60 59 56 55 55 55 56 56 57 55 48 49 53 61 61 61 61 61 61
64 62 60 59 57 55 55 54 54 56 56 57 55 46 47 56 60 60 60 60 61 61
63 63 60 58 56 56 55 55 57 56 56 55 56 45 47 56 59 57 57 58 58 52
62 62 61 58 57 57 55 55 54 57 55 55 55 51 46 50 59 58 55 56 55 55

GFSNIL_sfc_temp_006.txt.gz
Temp
60 58 57 58 57 56 57 58 59 60 61 61 62 61 61 61 60 61 61 61 62 61
59 58 58 58 58 57 58 59 60 61 61 61 62 62 62 61 62 62 62 61 61 62
60 59 59 58 58 58 58 60 60 61 61 61 62 62 61 62 64 64 61 62 63 62
60 60 59 59 58 58 59 59 60 61 61 61 61 61 62 62 63 62 62 62 62 61
62 60 58 59 58 59 59 60 60 61 61 61 61 61 63 64 64 63 62 62 62 61
61 59 58 58 58 59 59 60 61 61 61 61 61 61 61 62 63 62 62 63 62 62
60 60 59 59 59 59 60 60 61 61 62 62 62 61 61 62 63 63 62 62 62 63
60 60 59 59 59 60 60 61 62 62 61 62 62 61 60 62 63 62 62 62 62 62
61 61 60 59 60 60 60 61 62 62 62 61 61 49 53 59 62 62 62 61 61 61
62 62 61 60 60 60 59 60 60 60 61 61 59 47 49 53 62 62 61 61 61 62
63 63 61 60 60 58 58 59 58 59 60 60 57 47 48 52 62 61 62 62 63 62
63 62 60 60 58 58 57 57 58 59 60 60 57 46 47 57 62 62 62 63 62 62
64 62 61 59 58 58 58 58 59 58 60 55 58 45 47 57 62 60 60 60 59 53
62 62 61 58 58 58 57 57 57 57 57 59 58 54 45 50 62 60 60 60 60 61

GFSNIL_sfc_temp_009.txt.gz
Temp
70 72 72 70 70 69 69 69 69 69 71 69 70 70 70 71 71 69 68 68 66 67
70 69 69 67 67 69 68 69 69 70 70 70 71 70 70 71 69 70 70 67 67 63
71 70 69 68 67 68 68 69 69 70 71 71 71 70 68 66 68 68 68 64 67 66
71 71 70 69 68 69 69 69 70 70 71 71 70 67 67 67 67 67 67 66 64 63
71 70 69 69 68 69 69 70 70 71 71 70 70 66 66 66 65 65 64 62 63 62
70 70 69 68 68 69 70 70 70 71 70 70 69 69 69 67 66 65 65 64 63 63
70 70 70 69 69 69 70 70 71 70 71 71 70 69 69 68 67 67 66 65 65 65
71 71 70 69 70 70 70 71 72 71 71 71 70 70 68 67 68 67 66 65 65 67
72 71 70 69 70 70 70 70 71 71 71 70 70 49 55 64 67 68 67 66 64 63
72 72 71 71 71 70 69 70 70 70 70 70 67 47 49 55 67 65 64 66 64 63
75 73 72 71 70 68 69 69 69 69 70 69 66 46 47 51 65 64 64 67 67 65
76 73 72 71 69 68 68 68 68 70 68 68 61 46 47 59 64 63 65 69 68 65
77 75 73 72 70 69 69 69 71 68 70 60 61 45 47 60 67 63 63 66 66 53
76 74 74 71 70 69 69 68 68 67 67 68 65 59 45 51 64 65 67 64 67 69

GFSNIL_sfc_temp_015.txt.gz
Temp
80 81 81 77 78 70 75 74 76 76 75 75 75 74 75 76 75 75 72 72 71 71
79 80 75 76 76 76 75 74 77 77 75 76 77 75 75 73 72 73 73 74 74 73
79 79 78 77 76 72 76 79 77 76 75 76 76 75 72 71 72 71 70 74 72 72
77 79 79 76 77 72 75 75 77 78 77 76 75 76 73 70 71 71 71 69 66 68
78 78 76 75 76 76 73 77 79 80 80 78 76 75 71 69 69 70 69 70 67 64
79 76 74 75 73 78 78 78 80 80 79 75 75 71 71 70 69 72 67 63 64 67
75 75 73 73 75 78 79 79 79 80 75 78 76 73 74 73 71 69 65 64 64 66
76 78 78 74 78 79 79 80 78 76 79 76 76 75 74 72 71 70 69 68 66 66
81 80 78 78 77 78 76 76 76 74 76 77 75 53 54 62 69 70 69 66 64 67
80 79 78 79 78 77 73 74 73 74 73 75 70 51 51 53 69 70 69 69 67 68
82 80 80 79 77 76 73 73 74 75 75 73 68 49 49 50 71 70 70 70 71 70
83 80 79 75 75 76 72 73 73 73 73 73 68 48 48 57 71 69 67 68 72 72
84 82 80 78 77 76 76 76 71 73 72 64 69 48 47 56 68 69 68 71 66 52
84 81 80 78 77 77 77 77 72 72 72 73 69 63 48 50 66 69 71 73 69 69

GFSNIL_sfc_temp_021.txt.gz
Temp
67 65 64 64 63 62 61 62 63 64 64 65 66 65 63 61 61 62 61 61 60 60
65 65 64 64 63 62 62 64 64 64 65 66 66 66 63 61 62 62 61 61 61 61
66 67 65 64 63 63 63 64 64 64 65 66 65 66 63 62 63 64 62 61 61 61
69 69 65 64 66 63 64 68 65 66 66 66 64 63 62 62 63 64 64 61 62 61
69 64 64 63 64 64 64 66 67 68 70 67 65 64 63 63 64 64 62 61 63 61
68 63 63 64 67 64 65 66 69 68 67 66 65 64 63 63 64 63 62 62 61 61
64 63 63 65 64 68 66 66 69 69 69 66 66 65 66 66 63 62 61 60 62 62
64 64 64 66 65 66 67 68 70 69 66 64 63 62 62 64 62 61 61 61 61 61
69 69 68 67 67 65 67 68 69 68 64 60 63 49 52 58 62 62 62 60 59 60
69 67 68 70 68 65 66 67 66 62 60 58 55 47 48 52 62 62 61 62 62 62
70 67 68 69 66 64 62 62 61 62 60 58 55 48 47 53 62 61 61 61 62 62
71 68 69 67 63 62 62 62 62 61 59 58 54 48 46 58 62 61 61 62 63 62
71 71 69 67 62 62 62 63 64 62 60 56 56 49 46 57 62 60 59 59 59 53
70 70 65 63 62 62 62 62 61 61 60 59 57 53 47 52 62 61 60 59 59 57

GFSNIL_sfc_temp_024.txt.gz
Temp
64 63 62 61 60 60 60 60 61 62 61 62 63 63 62 60 60 60 59 59 58 58
62 62 61 61 61 60 60 62 62 62 62 63 64 63 62 60 61 60 60 60 60 59
63 63 62 62 61 61 60 62 62 62 63 63 64 63 62 60 62 62 61 60 61 60
63 63 62 61 61 61 61 62 62 63 64 64 62 62 61 62 63 62 62 61 61 60
63 62 61 61 61 62 62 62 63 65 66 66 63 62 62 63 63 62 62 62 61 60
66 61 61 61 62 62 62 63 68 65 65 64 63 63 63 63 63 62 61 61 60 59
62 61 61 61 61 63 63 67 67 67 67 64 63 64 64 64 62 61 60 60 60 60
63 62 62 62 63 67 66 67 68 66 62 61 61 60 60 62 60 60 59 60 61 62
66 63 64 62 62 62 65 67 67 62 61 59 60 48 50 58 60 61 60 58 60 60
65 65 64 66 63 62 65 65 63 59 58 57 55 47 47 53 60 60 60 61 60 60
66 65 65 65 62 61 60 60 59 58 57 56 55 47 47 53 60 60 61 62 60 59
67 64 65 66 60 60 60 59 58 58 57 56 55 46 47 56 60 60 61 62 61 60
67 65 65 66 61 60 60 61 60 59 58 54 56 46 47 56 60 60 60 60 58 52
66 65 63 61 60 60 60 60 60 58 57 56 56 53 47 51 59 60 60 59 58 56

GFSNIL_sfc_temp_027.txt.gz
Temp
61 60 60 60 60 59 59 60 60 60 60 60 61 60 60 59 59 59 58 58 57 56
61 61 60 60 60 59 59 61 60 61 61 61 61 61 61 60 60 60 60 58 57 56
60 61 60 60 60 60 59 60 60 60 61 61 62 62 61 59 60 60 60 59 59 58
60 61 60 60 60 59 59 60 61 62 62 62 61 61 59 60 62 62 62 61 59 59
60 60 59 60 60 60 60 60 61 62 63 64 62 61 60 61 62 62 61 61 60 58
59 59 59 60 60 60 60 60 62 63 62 63 63 62 61 62 62 61 61 61 60 59
59 59 59 60 59 60 61 62 65 66 65 63 62 62 63 63 62 61 61 60 60 60
62 60 60 60 60 61 62 65 67 64 61 60 60 58 59 62 60 60 59 60 61 61
65 61 60 60 61 61 62 66 64 61 60 58 59 46 52 58 60 60 60 59 60 59
62 62 62 61 61 60 63 63 61 59 58 56 56 46 49 52 60 59 60 60 59 59
63 62 62 61 60 59 60 61 59 56 56 56 55 46 47 52 59 61 61 60 59 58
64 62 62 60 58 57 57 57 56 57 56 56 55 46 48 55 60 60 60 60 60 60
64 63 61 60 58 58 58 58 58 57 56 53 56 46 47 55 60 60 59 59 58 50
63 62 61 59 58 59 58 59 58 56 55 56 55 53 47 49 60 60 59 58 57 54

GFSNIL_sfc_temp_030.txt.gz
Temp
64 64 64 62 62 61 60 61 62 62 62 62 63 62 62 61 61 61 60 60 59 59
62 62 61 60 61 61 61 62 62 63 62 62 63 63 62 61 61 61 61 60 60 59
61 62 61 62 61 61 61 62 62 62 62 63 64 64 63 62 62 61 61 61 60 60
61 62 61 61 61 61 61 61 62 63 64 64 64 63 62 62 63 61 61 61 62 62
61 61 60 60 61 61 61 62 63 64 65 65 65 64 63 62 62 62 60 61 61 61
60 60 60 60 61 61 62 62 64 64 65 65 65 64 63 62 62 61 61 61 61 61
60 60 60 61 61 61 62 63 64 65 66 65 64 63 63 63 62 61 62 62 61 61
60 61 61 61 61 62 63 65 65 65 63 62 62 58 59 63 61 61 60 61 62 62
63 61 61 61 61 62 64 66 64 63 62 61 59 47 52 59 62 61 60 60 61 61
62 62 62 62 62 61 62 64 62 60 60 60 57 46 50 52 61 61 60 60 60 59
63 62 62 62 61 61 62 62 60 59 59 59 55 47 48 51 62 62 61 60 59 58
64 62 62 61 59 60 60 59 59 59 59 60 57 46 47 57 61 60 59 60 60 60
64 63 62 61 59 60 60 60 59 58 59 54 58 46 47 57 61 59 58 58 57 50
64 62 62 60 61 60 60 60 59 58 58 59 57 53 46 51 60 59 59 58 57 54

GFSNIL_sfc_temp_033.txt.gz
Temp
74 76 76 76 71 75 76 75 73 73 73 73 73 72 72 72 72 70 68 68 68 70
74 75 74 72 73 75 74 74 73 73 72 73 73 72 71 72 71 70 64 68 69 70
74 74 73 73 72 73 73 74 73 72 72 72 72 72 71 71 71 69 63 64 69 69
73 73 74 73 73 73 72 72 73 73 73 73 72 72 70 71 71 65 63 61 67 68
73 73 72 72 73 73 72 73 74 74 74 74 73 72 72 71 67 62 61 62 63 69
72 72 71 72 72 73 73 73 74 75 74 74 73 73 72 66 62 62 63 64 64 68
72 72 72 72 72 73 74 74 74 74 75 74 74 72 70 67 64 62 64 62 66 69
72 73 72 72 72 73 73 75 75 74 73 72 71 68 65 67 64 64 61 64 62 68
73 73 72 71 72 72 73 74 70 72 73 70 70 47 52 62 65 63 62 63 65 64
73 72 72 72 72 72 72 68 67 71 72 69 67 47 49 53 66 65 62 61 60 60
74 73 72 72 72 71 68 66 64 70 70 69 62 47 47 51 66 64 63 61 60 59
74 73 72 72 71 71 68 64 66 70 69 68 62 46 47 58 64 63 61 61 61 60
76 74 72 72 70 70 71 70 71 68 69 57 62 46 47 58 63 60 59 58 58 51
75 74 73 71 70 70 69 69 68 68 68 64 60 57 45 51 63 60 61 59 57 54

GFSNIL_sfc_temp_036.txt.gz
Temp
81 84 83 84 82 83 83 82 79 80 80 80 79 78 77 79 78 76 75 72 71 72
83 82 82 79 80 83 82 81 80 80 79 79 78 78 77 79 76 76 73 70 70 72
81 81 80 80 80 80 80 81 79 79 78 78 78 78 76 77 76 73 71 67 70 71
81 80 81 80 80 79 79 79 79 79 79 78 77 77 74 74 75 72 68 65 64 70
80 80 79 79 79 80 79 80 80 80 80 80 79 78 77 75 76 64 62 63 64 72
79 79 78 78 78 79 79 79 80 80 80 80 79 77 77 75 71 62 63 64 65 72
78 78 78 78 78 79 80 79 80 80 81 80 80 79 77 73 68 65 62 67 69 73
78 79 79 78 78 79 79 80 81 80 80 78 79 76 73 69 65 63 66 62 65 72
79 79 77 77 77 78 79 80 80 79 79 77 78 49 52 62 68 64 64 68 67 72
79 79 78 78 78 77 77 76 77 77 77 75 73 49 50 53 70 65 64 62 64 62
80 79 78 78 77 76 76 74 74 75 76 75 68 48 48 52 69 64 63 62 63 64
79 78 77 77 76 76 75 73 75 76 75 73 68 48 47 57 67 62 61 61 61 63
82 79 78 77 76 77 77 76 79 76 75 59 67 46 47 58 63 60 58 59 59 52
81 79 79 77 77 76 76 77 75 74 71 67 65 61 47 51 64 62 62 60 58 57

GFSNIL_sfc_temp_042.txt.gz
Temp
79 79 77 75 74 73 71 73 74 74 75 76 75 74 73 71 72 71 70 70 69 66
79 80 76 76 75 75 75 76 75 76 75 75 76 75 73 70 70 70 69 69 69 67
80 81 78 78 76 76 75 76 76 75 75 75 75 74 72 70 71 69 67 67 68 66
80 79 79 77 76 76 76 76 76 77 75 75 73 73 71 72 71 68 67 67 66 64
77 77 76 75 75 77 76 77 78 77 76 76 76 73 72 71 71 69 67 65 63 64
72 74 75 74 76 77 77 77 78 78 77 75 73 71 73 73 71 69 67 65 63 64
75 76 76 76 77 77 78 77 77 76 76 74 75 75 74 73 70 67 66 64 63 65
76 77 77 76 76 77 76 76 75 73 73 73 73 71 70 70 67 65 62 62 63 65
78 78 76 76 75 73 72 73 72 72 72 68 70 50 53 64 66 65 64 63 63 64
78 77 73 75 73 70 71 71 70 71 70 67 63 49 51 58 67 64 63 64 64 66
78 75 72 72 69 69 71 70 69 69 69 67 60 50 51 52 66 64 62 64 66 66
75 73 72 71 69 70 70 68 69 70 69 66 62 48 50 58 66 62 61 62 65 65
76 74 72 70 69 70 70 70 69 69 68 58 62 47 51 61 65 61 59 60 61 50
75 75 71 70 71 71 70 70 68 67 66 65 63 57 51 53 63 61 60 59 60 58

GFSNIL_sfc_temp_045.txt.gz
Temp
72 70 70 70 69 67 66 66 68 70 71 71 71 69 68 67 65 65 64 64 62 61
69 70 69 68 68 67 67 68 69 71 68 69 70 69 68 66 65 64 64 63 62 61
70 71 70 69 68 67 67 69 68 69 69 68 69 67 66 64 65 64 63 62 63 62
71 72 71 70 69 69 69 69 69 69 69 69 69 69 64 64 64 64 62 63 63 62
70 72 71 70 71 70 69 70 70 71 72 73 69 69 66 65 65 63 62 62 62 61
69 69 69 69 70 73 71 70 71 71 72 71 69 67 67 66 65 64 62 62 61 61
68 69 68 71 71 71 72 72 73 70 69 71 72 72 69 66 64 62 62 61 61 63
69 71 71 71 71 70 69 69 69 69 70 69 68 68 65 64 63 61 60 60 62 63
71 70 68 68 71 68 66 67 71 68 68 65 64 50 55 61 61 60 61 59 61 60
71 70 71 73 68 69 69 69 68 66 64 59 55 49 51 58 61 60 60 59 61 61
72 69 71 67 69 67 68 65 65 64 62 57 55 49 52 55 61 60 61 61 61 61
70 70 69 67 67 67 64 62 62 62 60 57 56 48 51 58 60 60 60 59 58 61
74 71 68 67 67 66 62 63 63 62 60 54 55 47 53 59 59 59 58 58 58 49
70 68 69 67 68 62 62 62 61 60 59 58 56 54 50 53 60 60 58 58 56 53

GFSNIL_sfc_temp_048.txt.gz
Temp
72 72 68 69 68 69 69 68 68 68 67 70 70 69 67 65 65 65 65 64 61 60
70 68 69 67 68 67 66 67 67 68 67 70 70 68 65 65 65 65 64 61 60 60
68 69 68 67 66 66 66 67 67 66 66 67 68 66 65 65 65 64 61 61 60 60
68 68 67 67 67 67 66 67 67 67 67 68 68 67 66 63 63 62 61 61 61 61
68 67 67 66 67 67 67 68 68 69 69 70 68 67 64 63 64 62 60 60 60 61
68 68 67 68 68 68 68 67 70 71 71 70 69 65 64 64 63 62 61 61 61 61
68 68 68 67 68 68 69 68 71 71 71 68 67 67 66 64 62 61 61 61 61 61
66 66 67 67 68 69 71 71 69 65 65 66 69 69 65 63 61 60 59 59 60 61
67 69 69 69 68 68 68 65 67 64 64 64 64 51 54 59 60 59 59 59 60 62
70 70 69 70 69 64 62 62 63 64 63 59 56 48 50 55 60 59 59 59 59 61
71 71 70 68 65 62 64 64 62 61 60 56 55 48 49 53 60 59 60 60 60 60
71 69 67 64 65 65 64 63 62 59 56 55 55 48 49 55 59 58 58 58 60 60
70 67 64 66 67 65 63 61 60 58 57 53 56 47 49 55 58 57 57 58 57 50
68 69 68 68 66 64 61 60 59 57 56 56 57 53 48 51 60 59 57 57 55 52